Time,TemperatureF,DewpointF,PressureIn,WindDirection,WindDirectionDegrees,WindSpeedMPH,WindSpeedGustMPH,Humidity,HourlyPrecipIn,Conditions,Clouds,dailyrainin,SolarRadiationWatts/m^2,SoftwareType,DateUTC
2013-06-02 00:03:00,70.0,-99.9,-100.00,SE,144,7.0,11.0,97,0.06,,,0.45,0.000000,,2013-06-02 04:03:00,
2013-06-02 00:33:00,70.0,69.0,-100.00,SSW,195,4.0,11.0,97,0.00,,,0.45,0.000000,,2013-06-02 04:33:00,
2013-06-02 00:42:00,70.0,69.0,-100.00,SSW,195,4.0,11.0,97,0.00,,,0.45,0.000000,,2013-06-02 04:42:00,
2013-06-02 00:53:00,70.0,69.0,-100.00,SSW,195,4.0,11.0,97,0.00,,,0.45,0.000000,,2013-06-02 04:53:00,
2013-06-02 01:03:00,70.0,69.0,-100.00,SSW,195,4.0,11.0,97,0.00,,,0.45,0.000000,,2013-06-02 05:03:00,
2013-06-02 01:32:00,70.0,69.0,-100.00,SSE,166,8.0,11.0,96,0.00,,,0.45,0.000000,,2013-06-02 05:32:00,
2013-06-02 01:42:00,70.0,69.0,-100.00,SSE,166,8.0,11.0,96,0.00,,,0.45,0.000000,,2013-06-02 05:42:00,
2013-06-02 01:52:00,70.0,69.0,-100.00,SSE,166,8.0,11.0,96,0.00,,,0.45,0.000000,,2013-06-02 05:52:00,
2013-06-02 02:01:00,70.0,69.0,-100.00,SSE,166,8.0,11.0,96,0.00,,,0.45,0.000000,,2013-06-02 06:01:00,
2013-06-02 02:32:00,69.0,67.0,-100.00,SSW,205,7.0,13.0,94,0.00,,,0.45,0.000000,,2013-06-02 06:32:00,
2013-06-02 02:42:00,69.0,67.0,-100.00,SSW,205,7.0,13.0,94,0.00,,,0.45,0.000000,,2013-06-02 06:42:00,
2013-06-02 02:52:00,69.0,67.0,-100.00,SSW,205,7.0,13.0,94,0.00,,,0.45,0.000000,,2013-06-02 06:52:00,
2013-06-02 03:02:00,69.0,67.0,-100.00,SSW,205,7.0,13.0,94,0.00,,,0.45,0.000000,,2013-06-02 07:02:00,
2013-06-02 03:32:00,69.0,67.0,-100.00,SSE,166,6.0,13.0,94,0.00,,,0.45,0.000000,,2013-06-02 07:32:00,
2013-06-02 03:42:00,69.0,67.0,-100.00,SSE,166,6.0,13.0,94,0.00,,,0.45,0.000000,,2013-06-02 07:42:00,
2013-06-02 03:52:00,69.0,67.0,-100.00,SSE,166,6.0,13.0,94,0.00,,,0.45,0.000000,,2013-06-02 07:52:00,
2013-06-02 04:02:00,69.0,67.0,-100.00,SSE,166,6.0,13.0,94,0.00,,,0.45,0.000000,,2013-06-02 08:02:00,
2013-06-02 04:32:00,68.0,67.0,-100.00,SSW,210,6.0,10.0,96,0.00,,,0.45,0.000000,,2013-06-02 08:32:00,
2013-06-02 04:42:00,68.0,67.0,-100.00,SSW,210,6.0,10.0,96,0.00,,,0.45,0.000000,,2013-06-02 08:42:00,
2013-06-02 04:52:00,68.0,67.0,-100.00,SSW,210,6.0,10.0,96,0.00,,,0.45,0.000000,,2013-06-02 08:52:00,
2013-06-02 05:01:00,68.0,67.0,-100.00,SSW,210,6.0,10.0,96,0.00,,,0.45,0.000000,,2013-06-02 09:01:00,
2013-06-02 05:33:00,68.0,67.0,-100.00,SSW,198,5.0,10.0,98,0.00,,,0.45,0.000000,,2013-06-02 09:33:00,
2013-06-02 05:43:00,68.0,67.0,-100.00,SSW,198,5.0,10.0,98,0.00,,,0.45,0.000000,,2013-06-02 09:43:00,
2013-06-02 05:53:00,68.0,67.0,-100.00,SSW,198,5.0,10.0,98,0.00,,,0.45,0.000000,,2013-06-02 09:53:00,
2013-06-02 06:02:00,68.0,67.0,-100.00,SSW,198,5.0,10.0,98,0.00,,,0.45,0.000000,,2013-06-02 10:02:00,
2013-06-02 06:33:00,68.0,67.0,-100.00,South,171,4.0,9.0,98,0.00,,,0.45,0.000000,,2013-06-02 10:33:00,
2013-06-02 06:42:00,68.0,67.0,-100.00,South,171,4.0,9.0,98,0.00,,,0.45,0.000000,,2013-06-02 10:42:00,
2013-06-02 06:52:00,68.0,67.0,-100.00,South,171,4.0,9.0,98,0.00,,,0.45,0.000000,,2013-06-02 10:52:00,
2013-06-02 07:02:00,68.0,67.0,-100.00,South,171,4.0,9.0,98,0.00,,,0.45,0.000000,,2013-06-02 11:02:00,
2013-06-02 07:32:00,68.0,68.0,-100.00,South,190,5.0,13.0,99,0.02,,,0.47,2.000000,,2013-06-02 11:32:00,
2013-06-02 07:42:00,68.0,68.0,-100.00,South,190,5.0,13.0,99,0.02,,,0.47,2.000000,,2013-06-02 11:42:00,
2013-06-02 07:52:00,68.0,68.0,-100.00,South,190,5.0,13.0,99,0.02,,,0.47,2.000000,,2013-06-02 11:52:00,
2013-06-02 08:02:00,68.0,68.0,-100.00,South,190,5.0,13.0,99,0.02,,,0.47,2.000000,,2013-06-02 12:02:00,
2013-06-02 08:32:00,68.0,68.0,-100.00,SSW,196,7.0,11.0,100,0.01,,,0.48,9.000000,,2013-06-02 12:32:00,
2013-06-02 08:42:00,68.0,68.0,-100.00,SSW,196,7.0,11.0,100,0.01,,,0.48,9.000000,,2013-06-02 12:42:00,
2013-06-02 08:53:00,68.0,68.0,-100.00,SSW,196,7.0,11.0,100,0.01,,,0.48,9.000000,,2013-06-02 12:53:00,
2013-06-02 09:01:00,68.0,68.0,-100.00,SSW,196,7.0,11.0,100,0.01,,,0.48,9.000000,,2013-06-02 13:01:00,
2013-06-02 09:32:00,70.0,70.0,-100.00,SW,217,6.0,12.0,100,0.00,,,0.48,89.000000,,2013-06-02 13:32:00,
2013-06-02 09:42:00,70.0,70.0,-100.00,SW,217,6.0,12.0,100,0.00,,,0.48,89.000000,,2013-06-02 13:42:00,
2013-06-02 09:52:00,70.0,70.0,-100.00,SW,217,6.0,12.0,100,0.00,,,0.48,89.000000,,2013-06-02 13:52:00,
2013-06-02 10:02:00,70.0,70.0,-100.00,SW,217,6.0,12.0,100,0.00,,,0.48,89.000000,,2013-06-02 14:02:00,
2013-06-02 10:32:00,71.0,71.0,-100.00,SW,232,5.0,12.0,100,0.00,,,0.48,136.000000,,2013-06-02 14:32:00,
2013-06-02 10:42:00,71.0,71.0,-100.00,SW,232,5.0,12.0,100,0.00,,,0.48,136.000000,,2013-06-02 14:42:00,
2013-06-02 10:52:00,71.0,71.0,-100.00,SW,232,5.0,12.0,100,0.00,,,0.48,136.000000,,2013-06-02 14:52:00,
2013-06-02 11:01:00,71.0,71.0,-100.00,SW,232,5.0,12.0,100,0.00,,,0.48,136.000000,,2013-06-02 15:01:00,
2013-06-02 11:33:00,75.0,72.0,-100.00,WSW,258,3.0,9.0,90,0.00,,,0.48,484.000000,,2013-06-02 15:33:00,
2013-06-02 11:43:00,75.0,72.0,-100.00,WSW,258,3.0,9.0,90,0.00,,,0.48,484.000000,,2013-06-02 15:43:00,
2013-06-02 11:53:00,75.0,72.0,-100.00,WSW,258,3.0,9.0,90,0.00,,,0.48,484.000000,,2013-06-02 15:53:00,
2013-06-02 12:03:00,75.0,72.0,-100.00,WSW,258,3.0,9.0,90,0.00,,,0.48,484.000000,,2013-06-02 16:03:00,
2013-06-02 12:33:00,79.0,71.0,-100.00,WSW,248,3.0,8.0,77,0.00,,,0.48,698.000000,,2013-06-02 16:33:00,
2013-06-02 12:42:00,79.0,71.0,-100.00,WSW,248,3.0,8.0,77,0.00,,,0.48,698.000000,,2013-06-02 16:42:00,
2013-06-02 12:53:00,79.0,71.0,-100.00,WSW,248,3.0,8.0,77,0.00,,,0.48,698.000000,,2013-06-02 16:53:00,
2013-06-02 13:02:00,79.0,71.0,-100.00,WSW,248,3.0,8.0,77,0.00,,,0.48,698.000000,,2013-06-02 17:02:00,
2013-06-02 13:33:00,80.0,67.0,-100.00,WNW,283,3.0,7.0,65,0.00,,,0.48,804.000000,,2013-06-02 17:33:00,
2013-06-02 13:42:00,80.0,67.0,-100.00,WNW,283,3.0,7.0,65,0.00,,,0.48,804.000000,,2013-06-02 17:42:00,
2013-06-02 13:52:00,80.0,67.0,-100.00,WNW,283,3.0,7.0,65,0.00,,,0.48,804.000000,,2013-06-02 17:52:00,
2013-06-02 14:02:00,80.0,67.0,-100.00,WNW,283,3.0,7.0,65,0.00,,,0.48,804.000000,,2013-06-02 18:02:00,
2013-06-02 14:32:00,80.0,70.0,-100.00,NW,316,2.0,5.0,71,0.00,,,0.48,576.000000,,2013-06-02 18:32:00,
2013-06-02 14:42:00,80.0,70.0,-100.00,NW,316,2.0,5.0,71,0.00,,,0.48,576.000000,,2013-06-02 18:42:00,
2013-06-02 14:52:00,80.0,70.0,-100.00,NW,316,2.0,5.0,71,0.00,,,0.48,576.000000,,2013-06-02 18:52:00,
2013-06-02 15:01:00,80.0,70.0,-100.00,NW,316,2.0,5.0,71,0.00,,,0.48,576.000000,,2013-06-02 19:01:00,
2013-06-02 15:32:00,80.0,69.0,-100.00,NW,315,3.0,7.0,69,0.00,,,0.48,652.000000,,2013-06-02 19:32:00,
2013-06-02 15:42:00,80.0,69.0,-100.00,NW,315,3.0,7.0,69,0.00,,,0.48,652.000000,,2013-06-02 19:42:00,
2013-06-02 15:52:00,80.0,69.0,-100.00,NW,315,3.0,7.0,69,0.00,,,0.48,652.000000,,2013-06-02 19:52:00,
2013-06-02 16:02:00,80.0,69.0,-100.00,NW,315,3.0,7.0,69,0.00,,,0.48,652.000000,,2013-06-02 20:02:00,
2013-06-02 16:32:00,80.0,68.0,-100.00,WNW,293,3.0,6.0,68,0.00,,,0.36,636.000000,,2013-06-02 20:32:00,
2013-06-02 16:42:00,80.0,68.0,-100.00,WNW,293,3.0,6.0,68,0.00,,,0.36,636.000000,,2013-06-02 20:42:00,
2013-06-02 16:52:00,80.0,68.0,-100.00,WNW,293,3.0,6.0,68,0.00,,,0.36,636.000000,,2013-06-02 20:52:00,
2013-06-02 17:02:00,80.0,68.0,-100.00,WNW,293,3.0,6.0,68,0.00,,,0.36,636.000000,,2013-06-02 21:02:00,
2013-06-02 17:33:00,81.0,69.0,-100.00,WNW,300,2.0,6.0,68,0.00,,,0.33,578.000000,,2013-06-02 21:33:00,
2013-06-02 17:43:00,81.0,69.0,-100.00,WNW,300,2.0,6.0,68,0.00,,,0.33,578.000000,,2013-06-02 21:43:00,
2013-06-02 17:53:00,81.0,69.0,-100.00,WNW,300,2.0,6.0,68,0.00,,,0.33,578.000000,,2013-06-02 21:53:00,
2013-06-02 18:03:00,81.0,69.0,-100.00,WNW,300,2.0,6.0,68,0.00,,,0.33,578.000000,,2013-06-02 22:03:00,
2013-06-02 18:33:00,78.0,67.0,-100.00,WNW,302,3.0,6.0,70,0.00,,,0.26,416.000000,,2013-06-02 22:33:00,
2013-06-02 18:42:00,78.0,67.0,-100.00,WNW,302,3.0,6.0,70,0.00,,,0.26,416.000000,,2013-06-02 22:42:00,
2013-06-02 18:53:00,78.0,67.0,-100.00,WNW,302,3.0,6.0,70,0.00,,,0.26,416.000000,,2013-06-02 22:53:00,
2013-06-02 19:02:00,78.0,67.0,-100.00,WNW,302,3.0,6.0,70,0.00,,,0.26,416.000000,,2013-06-02 23:02:00,
2013-06-02 19:32:00,74.0,67.0,-100.00,NNW,334,2.0,5.0,79,0.00,,,0.26,194.000000,,2013-06-02 23:32:00,
2013-06-02 19:43:00,74.0,67.0,-100.00,NNW,334,2.0,5.0,79,0.00,,,0.26,194.000000,,2013-06-02 23:43:00,
2013-06-02 19:53:00,74.0,67.0,-100.00,NNW,334,2.0,5.0,79,0.00,,,0.26,194.000000,,2013-06-02 23:53:00,
2013-06-02 20:01:00,74.0,67.0,-100.00,NNW,334,2.0,5.0,79,0.00,,,0.26,194.000000,,2013-06-03 00:01:00,
2013-06-02 20:32:00,73.0,68.0,-100.00,WNW,295,2.0,4.0,84,0.00,,,0.20,114.000000,,2013-06-03 00:32:00,
2013-06-02 20:42:00,73.0,68.0,-100.00,WNW,295,2.0,4.0,84,0.00,,,0.20,114.000000,,2013-06-03 00:42:00,
2013-06-02 20:52:00,73.0,68.0,-100.00,WNW,295,2.0,4.0,84,0.00,,,0.20,114.000000,,2013-06-03 00:52:00,
2013-06-02 21:01:00,73.0,68.0,-100.00,WNW,295,2.0,4.0,84,0.00,,,0.20,114.000000,,2013-06-03 01:01:00,
2013-06-02 21:32:00,71.0,66.0,-100.00,NW,306,1.0,3.0,85,0.00,,,0.09,19.000000,,2013-06-03 01:32:00,
2013-06-02 21:42:00,71.0,66.0,-100.00,NW,306,1.0,3.0,85,0.00,,,0.09,19.000000,,2013-06-03 01:42:00,
2013-06-02 21:52:00,71.0,66.0,-100.00,NW,306,1.0,3.0,85,0.00,,,0.09,19.000000,,2013-06-03 01:52:00,
2013-06-02 22:02:00,71.0,66.0,-100.00,NW,306,1.0,3.0,85,0.00,,,0.09,19.000000,,2013-06-03 02:02:00,
2013-06-02 22:32:00,70.0,66.0,-100.00,WNW,287,2.0,3.0,87,0.00,,,0.09,0.000000,,2013-06-03 02:32:00,
2013-06-02 22:42:00,70.0,66.0,-100.00,WNW,287,2.0,3.0,87,0.00,,,0.09,0.000000,,2013-06-03 02:42:00,
2013-06-02 22:52:00,70.0,66.0,-100.00,WNW,287,2.0,3.0,87,0.00,,,0.09,0.000000,,2013-06-03 02:52:00,
2013-06-02 23:02:00,70.0,66.0,-100.00,WNW,287,2.0,3.0,87,0.00,,,0.09,0.000000,,2013-06-03 03:02:00,
2013-06-02 23:33:00,69.0,64.0,-100.00,NW,309,2.0,4.0,84,0.00,,,0.03,0.000000,,2013-06-03 03:33:00,
2013-06-02 23:43:00,69.0,64.0,-100.00,NW,309,2.0,4.0,84,0.00,,,0.03,0.000000,,2013-06-03 03:43:00,
2013-06-02 23:53:00,69.0,64.0,-100.00,NW,309,2.0,4.0,84,0.00,,,0.03,0.000000,,2013-06-03 03:53:00,